GFSSGP_850_temp_021.txt.gz
Temp
21 21 20 20 22 22 23 24 23 25 26 25 24 25 27 26 26 28 27 26 25 24 24 23 22 21 21 20 20 19 18 18 17 17 17 16 16 16 15 15 15 15 15 15 14 14 15 15 15
21 21 20 20 21 23 24 23 25 26 26 25 25 24 25 28 26 27 27 26 25 24 24 23 22 21 21 20 20 19 18 18 17 17 16 16 15 15 15 15 15 15 15 15 14 13 13 14 14
21 20 21 23 22 24 26 25 26 25 24 24 26 25 25 27 27 27 27 26 25 24 24 23 22 21 21 20 20 19 19 18 17 17 16 15 15 14 14 14 13 13 14 13 12 12 12 12 12
20 20 19 21 23 23 24 26 24 25 25 25 25 27 26 27 27 27 26 25 25 24 23 23 22 21 21 20 20 19 18 18 17 17 16 15 15 14 13 13 13 13 13 12 12 12 12 12 12
20 20 22 21 22 23 23 24 23 25 25 26 24 27 25 27 27 27 26 26 25 25 24 23 22 21 20 20 19 18 18 17 17 16 16 15 14 14 13 13 13 13 13 13 13 13 13 13 13
21 20 21 23 23 23 24 24 24 25 25 25 24 25 26 27 27 27 26 26 25 25 24 23 22 21 20 20 19 18 18 17 16 16 15 15 14 14 13 13 13 13 13 13 13 12 13 13 13
22 22 22 21 22 23 24 23 25 26 25 26 25 26 26 27 26 26 25 25 25 24 23 23 22 21 20 19 19 18 17 17 16 16 15 15 14 13 13 13 13 13 13 13 12 12 12 13 12
20 22 21 21 23 24 24 24 24 25 26 24 25 26 26 25 25 25 25 24 24 24 23 23 22 21 20 19 18 18 17 17 16 16 15 14 14 13 13 13 13 13 13 13 13 12 12 12 12
19 22 22 22 22 25 23 25 23 23 24 24 24 24 24 25 25 24 24 24 24 24 23 23 22 21 21 19 18 17 17 17 17 16 15 14 14 13 12 12 12 12 13 13 13 12 11 11 12
20 21 22 24 24 24 23 23 23 23 24 24 24 23 23 23 23 24 24 24 24 24 24 23 22 21 20 19 18 17 17 17 17 16 16 15 14 13 12 12 12 12 12 13 13 12 12 11 11
21 21 23 24 23 22 23 23 23 23 24 25 24 23 23 23 23 24 24 24 24 24 23 24 22 21 20 19 18 18 17 17 16 16 15 14 13 12 12 12 12 12 12 12 12 12 12 11 11
20 20 22 23 22 22 23 22 22 22 23 23 23 22 22 23 24 24 25 25 24 24 24 23 22 21 20 18 18 18 17 17 17 16 15 14 13 12 12 11 11 11 11 11 11 11 11 12 12
19 21 21 21 21 21 21 21 21 22 23 23 22 22 22 23 24 24 25 25 24 24 24 23 22 21 20 19 18 17 17 17 16 15 14 13 13 13 12 11 11 11 11 11 11 11 11 11 12
22 20 21 21 21 21 21 22 21 22 23 22 22 23 23 23 24 25 25 26 25 25 24 23 21 21 20 19 18 17 17 16 16 14 13 13 12 13 12 11 11 11 10 11 11 11 11 10 11
20 20 21 20 20 21 21 21 22 22 23 22 22 23 23 23 24 25 25 26 26 26 24 23 21 20 19 18 17 17 17 16 15 14 13 13 12 12 12 11 11 11 10 10 11 11 11 11 11
19 19 20 22 21 21 21 21 25 23 22 23 22 22 23 24 24 25 26 26 25 25 24 21 21 19 19 18 17 17 17 15 14 14 13 13 12 12 12 12 11 11 10 10 10 10 10 10 11
18 20 19 21 21 22 21 23 25 22 21 22 22 22 22 23 24 25 26 25 25 24 23 21 20 19 18 17 17 17 16 15 14 13 13 13 12 12 12 12 11 10 10 10 10 10 10 10 11
18 17 19 20 22 22 23 22 23 21 22 22 22 22 22 22 25 25 25 25 25 24 22 20 20 19 17 17 17 17 15 14 14 13 13 12 12 12 11 11 10 10 10 10 10 10 10 10 10
20 20 20 21 22 21 22 22 22 22 23 23 22 22 21 23 24 23 25 25 24 22 20 20 19 17 17 18 17 16 15 14 14 13 13 12 12 12 11 11 10 10 10 10 10 10 10 10 11
18 19 19 21 21 20 21 21 22 22 22 22 22 22 22 22 22 23 24 23 20 20 19 19 17 17 17 17 16 15 14 14 14 14 13 12 12 12 11 11 10 10 10 10 10 10 10 10 10
18 18 19 19 21 20 20 20 21 23 22 22 22 22 22 21 23 23 23 21 19 18 18 17 17 17 17 16 15 14 14 14 14 14 13 12 12 12 11 10 10 11 11 11 10 10 10 10 10
17 19 19 19 18 19 20 20 21 22 22 23 23 22 22 22 23 22 21 20 18 17 17 17 17 17 16 15 14 14 14 14 14 13 13 12 12 12 11 11 11 11 11 10 10 10 10 10 11
18 20 18 18 19 19 19 19 20 21 21 23 24 23 22 21 21 21 20 19 17 16 16 17 17 16 15 14 14 14 14 14 13 13 12 12 12 11 11 11 11 11 11 10 11 11 11 10 11
19 20 19 19 19 17 19 19 20 22 22 24 25 24 21 21 19 18 18 17 16 16 16 16 16 15 15 14 14 14 13 13 13 12 12 12 11 11 11 11 11 11 11 11 11 11 11 11 11
19 19 17 16 16 17 20 19 19 23 23 23 24 25 19 19 18 16 15 15 16 16 16 16 15 15 14 14 13 13 13 13 13 12 12 12 11 11 11 11 11 11 11 11 11 11 11 11 11
18 18 19 17 18 20 19 18 20 22 23 23 22 22 19 16 16 16 14 14 16 16 16 15 15 15 14 14 13 13 13 13 12 12 12 11 11 11 11 11 11 11 12 11 12 12 12 12 12
18 18 20 19 18 19 20 19 20 22 22 22 22 19 17 15 15 14 14 15 16 16 16 15 15 14 14 13 13 13 13 13 12 12 12 12 11 12 12 11 11 12 12 12 12 12 12 12 12
20 20 17 19 18 18 19 19 23 22 23 24 22 19 16 14 14 14 14 16 16 16 15 15 15 14 14 13 13 13 13 13 12 12 12 12 12 12 12 12 11 12 12 12 12 12 12 12 12
19 19 19 20 19 19 19 21 22 24 24 24 23 19 16 15 15 14 15 16 17 16 15 15 14 14 14 13 13 13 13 13 13 12 12 12 12 12 12 12 12 12 12 12 12 12 13 12 12
20 20 19 19 17 20 20 21 21 22 22 23 22 17 16 15 15 15 15 16 16 16 15 15 14 14 14 14 13 13 13 13 12 12 12 12 12 12 12 12 12 12 12 12 12 12 12 12 12

GFSSGP_850_temp_024.txt.gz
Temp
22 21 19 21 26 26 28 28 30 30 30 29 29 29 30 30 30 29 27 26 26 26 25 24 23 22 22 21 20 20 19 19 18 18 17 17 17 17 16 16 16 15 15 15 15 15 15 15 15
21 21 20 25 27 28 29 30 29 30 29 28 28 29 29 30 29 28 27 27 26 25 25 24 23 22 22 21 20 20 19 19 18 18 17 17 16 16 16 15 15 15 15 15 15 14 14 14 14
20 19 25 28 28 29 30 30 30 29 28 29 29 28 29 30 28 28 27 27 26 25 24 24 23 22 21 21 20 20 19 19 18 17 17 16 16 15 15 14 14 14 14 14 14 13 13 12 12
20 21 24 26 28 29 29 31 30 30 29 28 29 30 28 27 27 26 26 27 26 25 24 24 23 22 22 21 20 20 19 19 18 17 17 16 16 15 14 14 14 13 13 13 13 13 13 13 13
21 25 27 27 28 30 30 29 29 30 29 30 29 30 29 27 26 26 24 25 25 23 24 24 23 22 22 21 20 20 19 18 18 17 17 16 16 15 14 14 14 13 13 13 13 13 13 13 13
24 25 27 28 29 29 29 29 29 29 30 29 29 29 29 27 26 25 24 23 23 23 23 23 23 22 22 21 20 20 19 18 17 17 16 16 16 14 14 14 14 13 13 13 13 13 13 13 13
24 27 27 29 28 28 29 29 29 30 30 29 28 29 29 28 25 25 24 23 23 22 23 24 23 22 21 21 20 19 18 18 17 17 16 16 15 14 14 14 13 13 13 13 13 13 13 13 13
24 27 27 28 28 28 29 28 29 29 30 27 26 29 29 27 25 24 24 24 23 22 21 22 23 22 21 20 20 19 18 17 17 16 16 15 14 14 14 14 13 13 13 13 13 13 12 12 13
23 25 26 28 28 28 28 29 27 26 27 28 27 27 27 26 24 25 25 24 24 23 21 21 20 19 20 19 19 19 18 17 16 16 15 15 13 14 13 12 13 13 13 12 13 13 12 12 12
24 26 27 29 29 29 29 27 28 26 27 27 27 27 26 25 25 25 25 26 24 23 22 21 20 19 18 18 17 18 18 17 15 14 14 13 13 13 13 13 12 12 13 13 13 13 13 12 12
24 25 28 28 28 27 28 27 27 27 27 27 27 27 26 26 25 25 25 26 25 25 23 21 20 21 19 18 17 16 16 16 15 14 14 13 13 13 13 13 12 12 12 11 12 12 12 12 12
24 25 26 26 27 27 27 26 26 26 26 26 26 26 26 26 26 26 27 26 26 25 24 22 19 21 21 18 17 17 17 16 15 14 15 16 13 13 12 13 12 12 12 11 11 12 11 11 12
25 26 25 25 25 25 25 25 26 26 26 25 25 25 25 26 26 26 26 25 25 25 24 22 19 20 21 21 17 17 16 16 15 14 14 15 13 13 12 12 12 11 11 11 11 12 11 11 11
25 26 25 25 25 25 26 26 26 26 25 25 25 26 26 26 26 26 25 25 24 25 23 21 19 19 21 22 19 19 19 16 17 15 14 14 14 12 12 12 12 11 11 11 11 11 11 12 12
24 25 26 25 25 26 25 25 26 26 25 25 26 26 26 26 26 25 25 24 24 23 23 21 20 19 21 21 21 19 18 17 15 15 15 14 14 12 12 12 11 11 11 11 10 10 11 11 12
23 24 24 26 25 25 24 24 28 27 27 27 26 26 26 25 26 25 25 24 24 22 23 22 20 18 20 20 20 19 17 17 15 14 13 14 14 12 12 12 12 12 11 11 10 10 11 12 12
23 23 24 25 27 26 25 25 27 27 27 26 25 25 25 26 25 25 25 24 23 21 22 22 20 16 19 20 19 18 18 16 14 14 13 13 12 12 12 12 12 11 11 11 10 11 11 12 11
22 23 24 24 27 25 25 25 27 27 27 26 26 26 26 26 25 25 24 22 22 23 23 21 18 16 18 17 17 16 15 14 14 14 13 13 12 12 12 12 11 11 11 10 10 11 10 11 10
24 24 24 26 26 26 25 25 27 28 26 25 26 26 26 25 26 25 22 23 22 22 21 18 15 15 15 15 16 15 15 15 14 14 13 12 12 12 12 12 12 11 11 11 10 10 10 10 10
22 23 24 25 26 25 24 24 26 27 27 25 26 26 26 26 25 25 21 19 21 20 18 16 14 15 16 16 15 16 15 15 15 14 13 12 12 12 12 12 11 11 11 10 10 11 10 10 11
22 22 22 23 25 24 23 23 24 25 26 26 26 25 25 26 25 25 19 17 17 17 16 15 14 17 17 15 14 15 14 14 14 14 13 12 12 12 12 12 11 11 10 11 11 11 10 10 11
22 23 22 22 22 21 24 23 24 25 26 26 26 26 26 26 26 23 19 17 16 15 15 15 16 17 17 16 14 14 15 16 15 13 13 12 11 11 12 12 11 10 11 11 11 10 10 11 11
22 23 22 22 22 22 22 22 23 25 25 25 26 26 26 26 24 21 19 17 16 15 15 14 16 16 16 16 14 14 14 14 13 13 12 12 11 12 11 11 11 10 11 11 10 11 10 11 12
23 22 22 22 22 20 22 22 22 24 25 26 27 27 27 24 21 19 18 16 16 16 15 14 15 14 15 15 13 13 13 13 13 13 13 12 12 12 11 11 11 11 11 10 10 11 10 11 12
22 21 20 20 20 20 23 22 23 25 26 26 27 27 24 21 20 18 17 17 16 16 15 15 14 14 13 13 13 13 13 12 12 12 12 12 12 12 11 11 11 11 11 11 10 10 11 11 12
21 22 23 20 21 23 24 22 24 25 26 26 26 26 24 22 20 19 18 17 17 16 15 15 14 14 13 13 13 13 13 13 13 12 12 12 12 12 11 11 11 11 11 11 11 11 11 11 12
21 22 24 24 23 23 25 24 25 25 26 26 26 26 25 22 20 19 18 17 17 16 15 15 15 14 14 13 13 13 12 12 12 12 12 12 12 11 11 11 11 11 11 11 11 12 11 11 12
23 23 22 23 21 21 24 24 24 26 26 27 27 27 24 21 20 19 18 17 17 16 15 15 15 14 14 13 13 13 12 12 12 11 11 11 11 11 11 11 11 11 12 11 12 11 11 11 12
23 22 23 24 24 22 23 24 25 26 27 27 28 27 22 20 20 19 18 17 17 16 16 15 15 14 14 14 13 13 13 12 12 12 12 11 11 11 11 11 11 11 12 12 12 12 11 12 12
23 23 22 22 21 23 24 24 26 26 27 28 27 24 22 21 20 19 19 18 17 16 16 15 15 15 14 14 14 13 13 12 12 12 12 11 11 12 12 12 11 12 12 12 12 11 11 11 12

GFSSGP_850_temp_030.txt.gz
Temp
22 22 22 22 25 27 28 31 34 33 33 33 33 33 32 32 32 29 28 28 27 27 27 26 25 24 23 23 22 21 21 20 20 20 19 18 18 17 17 16 16 16 16 16 16 16 16 15 15
22 21 21 25 25 27 30 33 34 33 31 32 32 32 33 32 31 30 28 28 26 27 27 26 25 24 23 22 22 22 21 20 19 19 19 18 18 17 17 16 16 16 16 15 15 15 15 15 15
21 22 24 26 27 28 30 32 32 31 29 32 33 32 32 31 30 29 28 27 26 26 26 26 25 24 23 23 22 21 21 20 20 19 18 18 17 17 17 16 16 15 15 15 15 14 14 13 12
21 22 23 24 26 30 31 32 33 28 31 32 32 32 32 30 30 29 28 27 26 25 26 26 25 24 23 22 22 21 21 20 19 18 18 18 17 17 17 16 16 15 15 15 14 14 13 13 13
21 25 26 27 29 31 33 34 32 32 32 33 33 32 30 29 29 28 27 27 27 25 24 25 24 24 23 22 22 21 20 20 19 18 18 18 17 17 16 16 15 15 15 14 14 14 14 14 14
23 25 25 27 29 32 33 34 33 33 33 31 32 32 31 29 29 28 28 27 27 26 25 24 24 24 23 22 22 21 21 20 20 19 18 18 17 17 16 16 15 14 14 14 14 14 14 14 14
24 25 26 28 29 31 33 33 33 33 33 32 32 31 31 29 28 28 27 27 27 26 25 24 23 23 23 22 22 21 21 20 20 19 19 18 17 17 17 16 15 15 14 14 14 14 14 14 14
24 26 25 27 29 29 32 32 32 32 32 31 30 30 31 29 28 28 28 29 27 27 26 25 24 23 22 22 22 21 21 20 20 19 19 18 18 17 17 15 15 15 14 14 14 13 14 14 14
24 24 25 27 28 30 31 32 32 32 31 31 31 31 30 30 30 29 29 29 29 29 27 25 24 24 23 22 22 21 21 20 20 19 19 19 18 18 17 15 15 14 14 14 13 14 13 14 14
24 24 25 28 29 30 31 32 31 31 31 30 30 30 30 30 30 29 29 29 29 29 29 26 25 23 24 22 22 21 21 20 20 20 19 18 18 17 15 15 15 15 15 14 14 13 13 13 14
25 25 26 28 29 30 30 30 30 31 31 30 29 30 30 30 29 29 28 29 29 29 29 28 26 25 23 22 20 20 19 20 20 19 19 18 18 16 15 15 15 15 14 14 14 13 13 13 13
25 26 27 27 28 29 30 30 30 30 30 30 30 30 30 29 29 28 28 28 28 29 28 28 27 26 24 22 20 20 19 19 19 19 19 18 17 15 16 16 15 15 15 14 14 13 13 13 13
26 26 27 28 28 28 29 30 30 30 30 30 30 29 29 29 28 28 28 28 28 28 28 27 27 26 25 23 21 20 19 18 18 17 17 16 16 16 15 15 15 15 14 14 14 13 13 13 13
26 27 27 28 28 29 30 30 29 29 29 29 29 29 29 29 29 28 28 28 28 28 27 27 26 25 25 25 22 20 20 19 18 17 17 16 16 16 15 15 15 14 14 13 13 13 13 13 12
26 26 28 29 29 29 29 29 29 29 29 29 29 29 29 29 29 29 28 28 28 27 27 26 26 25 24 24 22 21 20 19 18 18 17 16 16 16 15 14 14 14 13 13 13 13 13 13 13
25 26 25 27 28 29 28 26 29 29 29 29 29 29 29 29 29 29 28 28 27 27 27 26 25 24 24 23 21 20 19 18 18 17 17 16 16 16 15 14 14 14 14 13 13 13 13 12 13
24 24 24 26 28 28 28 27 29 29 29 29 29 29 29 29 29 29 28 28 27 27 26 25 24 24 23 22 20 19 18 18 18 17 17 16 16 15 14 14 14 13 13 13 13 13 13 12 13
22 23 24 25 27 28 27 28 29 29 29 29 29 29 29 28 28 28 28 27 27 27 26 25 23 22 22 20 19 17 17 17 17 17 16 16 15 14 14 14 14 14 13 13 12 12 13 12 12
24 24 24 26 28 27 27 27 28 29 29 30 29 29 28 28 29 28 27 27 26 26 25 24 22 21 20 18 17 17 16 16 17 16 16 16 15 14 14 14 14 13 13 12 12 12 12 12 12
23 23 24 26 28 27 27 28 29 29 29 30 29 29 28 28 28 28 28 27 25 25 24 22 20 20 19 17 17 16 16 17 16 17 16 16 15 14 13 13 13 13 13 12 12 12 12 12 12
23 23 24 24 26 27 27 26 27 29 29 29 29 29 28 28 27 27 27 27 24 23 22 19 18 17 17 16 17 17 17 17 17 17 16 16 15 15 14 13 13 13 12 12 12 12 12 12 12
22 24 24 24 24 24 26 24 26 28 28 29 29 28 28 28 27 27 27 24 23 21 19 17 16 17 16 16 17 17 17 17 17 17 16 16 15 14 14 13 13 12 12 12 12 12 12 12 12
23 24 24 25 24 24 25 24 25 27 27 28 29 29 29 28 28 28 27 24 20 19 18 16 16 16 16 16 17 16 17 17 17 16 16 15 14 14 14 13 13 13 12 12 12 12 12 12 12
24 23 23 24 25 23 25 24 25 26 27 28 29 29 29 28 28 28 25 21 19 18 16 15 15 15 16 16 16 16 17 17 16 16 15 15 14 14 13 13 13 12 13 12 13 12 12 12 12
22 22 21 21 22 22 25 25 25 27 28 29 29 29 29 28 28 24 22 20 18 17 16 15 15 15 16 15 15 15 15 16 15 15 15 14 14 13 13 13 12 13 12 13 12 12 12 12 12
21 22 22 19 21 23 25 24 26 28 29 29 29 29 28 28 26 23 21 20 18 17 16 16 15 15 15 15 15 14 14 14 15 14 14 14 13 13 13 12 13 12 12 12 12 12 12 12 13
21 21 23 23 24 24 26 27 27 28 29 29 29 29 28 25 24 22 21 19 18 17 16 16 15 15 15 15 15 14 14 14 14 14 14 13 14 13 12 12 13 12 13 13 12 12 13 13 13
21 23 21 23 21 22 25 26 28 28 28 29 29 28 26 24 23 22 21 20 18 17 17 16 16 15 15 15 15 15 15 15 14 14 13 13 13 13 13 13 13 13 13 13 13 13 13 13 13
21 21 23 24 24 23 23 26 30 28 29 29 28 28 26 24 23 22 21 20 18 18 17 17 16 16 16 15 15 16 16 14 14 14 13 13 13 13 13 13 13 13 13 13 13 13 13 13 13
22 21 22 22 22 24 25 26 29 29 29 30 29 28 26 24 23 22 21 20 19 18 17 17 17 16 16 16 16 15 15 14 14 13 13 13 13 13 13 13 13 13 13 13 12 12 12 13 13

GFSSGP_850_temp_033.txt.gz
Temp
21 22 22 21 19 20 22 24 27 29 30 31 32 31 31 30 28 24 27 26 27 27 27 26 25 25 24 23 23 22 22 22 21 20 20 19 19 18 18 17 17 17 16 16 16 16 16 16 16
22 21 21 21 20 21 23 27 27 27 30 31 31 32 31 28 28 28 26 27 27 28 27 27 26 25 24 23 23 22 22 21 21 20 19 19 19 18 18 17 16 16 16 15 15 15 15 15 15
22 20 21 20 21 21 22 27 27 28 31 31 31 31 31 29 28 28 27 28 27 27 27 27 26 25 24 23 23 22 22 21 20 20 19 19 19 19 18 18 16 16 15 15 14 14 14 14 14
21 21 22 20 21 24 25 27 30 25 29 30 31 31 30 30 28 28 27 27 27 27 26 26 25 25 24 23 22 22 21 21 20 20 20 19 19 18 18 17 16 16 15 15 14 13 14 14 14
20 21 19 21 23 25 27 29 29 28 29 29 30 28 28 29 28 28 27 27 27 27 26 26 26 25 24 23 22 22 21 21 21 20 20 20 19 19 18 17 17 16 15 15 15 14 14 13 14
20 23 19 20 23 27 28 30 30 29 29 30 30 29 28 29 28 28 28 27 27 27 27 26 26 25 24 23 22 22 21 21 21 21 21 20 20 19 18 17 17 16 15 15 15 15 14 14 14
19 18 19 21 23 26 28 31 30 30 30 30 31 28 28 28 28 28 28 28 27 26 26 26 25 25 25 24 23 22 22 21 20 20 20 20 20 19 18 17 17 16 15 15 15 14 14 14 14
21 19 20 21 22 24 28 30 31 31 31 31 31 29 27 29 29 28 28 28 28 27 26 26 26 25 24 25 24 23 22 21 20 20 19 19 19 19 19 17 17 15 15 15 14 14 14 14 14
22 19 19 21 23 25 28 28 31 31 30 30 30 30 30 29 28 28 28 28 27 27 26 26 26 26 25 24 24 23 22 21 20 20 19 19 19 19 18 18 17 15 15 15 14 14 14 14 14
21 19 20 23 24 25 27 28 29 30 30 30 30 30 30 29 30 29 29 28 28 28 27 26 26 26 25 24 23 23 23 22 21 20 20 19 19 18 17 17 17 16 15 15 14 14 14 13 14
22 20 22 23 25 26 27 27 28 28 28 29 29 29 28 30 29 29 28 28 28 28 28 27 26 26 26 25 25 23 23 22 22 21 20 19 19 18 17 16 15 15 15 15 14 14 14 14 14
20 22 23 24 24 25 26 27 27 28 28 29 29 29 29 29 29 29 29 28 28 28 28 28 26 26 25 24 25 24 23 22 22 21 20 19 18 17 16 15 15 15 15 15 14 14 14 14 13
21 22 24 25 25 25 26 26 27 27 28 29 29 29 29 29 29 29 28 28 28 28 28 28 27 26 25 24 23 24 23 22 21 20 20 19 18 17 16 15 15 15 15 14 13 13 13 13 13
22 23 24 25 25 25 26 26 27 28 28 29 29 29 29 29 29 29 29 28 28 28 28 28 27 27 26 25 23 23 23 23 21 19 20 19 17 16 16 16 15 14 14 14 14 13 13 13 13
21 21 23 24 25 25 26 25 26 28 28 28 28 29 29 29 29 29 29 29 28 28 27 27 27 27 26 25 23 22 22 21 20 19 18 18 16 16 16 15 14 14 14 14 13 13 13 13 13
20 20 19 22 24 25 25 23 25 27 27 27 28 28 28 29 28 28 29 29 28 28 27 27 27 26 26 25 23 21 20 20 19 18 17 17 16 16 16 15 14 14 14 14 13 13 13 13 13
18 18 19 21 24 24 24 23 26 27 27 27 27 27 27 28 29 28 28 28 28 28 27 27 27 26 25 24 23 21 20 19 18 18 17 17 16 17 16 15 15 14 13 13 13 13 13 13 12
17 18 20 20 22 24 23 24 25 26 26 27 27 27 27 28 28 28 28 28 28 27 27 26 26 25 24 24 22 20 20 19 18 18 17 16 17 16 15 15 14 13 13 13 13 13 12 12 12
20 20 20 21 23 23 23 23 25 26 26 25 27 27 27 28 29 28 28 28 27 27 27 26 25 24 23 22 21 19 18 18 17 17 17 17 16 16 15 14 14 14 13 13 13 13 12 12 12
18 18 19 21 23 23 23 23 25 26 26 27 27 27 28 28 28 28 28 27 27 27 26 25 24 23 22 21 19 19 18 17 17 17 17 16 16 15 15 14 14 14 13 13 13 12 12 12 11
17 18 18 19 21 22 22 21 22 24 25 27 27 28 28 28 28 28 28 28 26 26 26 24 22 21 20 18 18 17 17 17 17 16 16 16 16 15 15 14 14 13 13 13 12 12 12 12 12
17 20 20 20 20 19 22 19 22 23 24 25 26 27 28 29 29 28 28 27 25 25 23 23 20 19 18 17 17 17 16 16 17 16 16 16 15 15 15 14 14 13 13 12 12 12 12 12 12
17 20 20 20 19 19 20 18 22 21 22 22 23 26 27 28 28 28 28 26 24 23 23 21 19 18 17 17 16 17 17 17 17 17 16 16 15 15 15 13 13 13 13 12 12 12 12 12 12
20 19 19 19 18 17 20 20 21 21 23 23 23 26 28 28 28 28 26 24 22 21 20 19 18 16 16 16 16 17 17 16 16 16 16 15 15 14 14 13 13 13 13 13 12 12 12 12 12
17 17 15 15 16 16 20 19 21 21 22 23 24 25 27 28 27 24 23 22 20 19 18 18 16 16 16 16 16 16 16 16 16 16 15 15 14 14 14 13 13 13 13 12 12 12 12 12 12
15 16 15 14 15 17 20 20 20 23 25 25 27 27 27 25 24 22 21 20 19 18 18 17 16 16 16 16 16 15 15 16 16 15 15 14 14 14 13 13 13 13 12 12 12 12 12 13 12
15 15 18 17 18 17 19 21 23 24 24 24 24 25 22 22 22 21 20 19 18 17 16 16 15 15 15 15 15 15 15 15 14 14 14 14 14 13 13 13 13 13 12 12 12 12 13 13 13
15 17 15 17 15 15 19 20 20 23 24 24 22 20 21 21 20 20 19 18 17 16 16 15 15 15 15 15 15 14 14 14 14 14 14 14 13 13 13 13 13 13 13 13 13 12 13 13 13
14 15 15 15 17 16 16 19 22 23 24 23 21 22 21 21 20 19 18 17 17 16 16 15 15 15 15 15 15 15 15 15 14 14 13 13 13 13 13 13 13 13 13 13 13 13 13 13 13
14 14 16 15 15 18 17 19 26 25 23 22 22 22 22 22 20 19 18 18 17 16 16 16 15 15 15 15 15 15 15 15 14 14 13 13 13 13 13 13 13 13 13 13 13 13 13 13 12

GFSSGP_850_temp_036.txt.gz
Temp
21 21 21 21 19 17 19 22 25 26 27 29 30 30 28 28 26 23 28 28 27 27 27 26 26 25 24 24 24 23 23 23 22 22 21 20 20 20 19 19 18 18 17 17 16 16 16 16 16
21 21 21 20 18 19 19 23 26 26 27 28 31 30 28 27 28 28 27 27 27 28 27 27 26 25 24 24 23 23 23 22 22 22 21 21 20 20 20 19 18 17 17 16 16 16 15 15 15
21 21 21 18 18 19 20 25 25 27 30 29 29 30 29 28 28 29 28 28 27 27 27 27 26 25 24 24 23 23 23 22 22 22 21 21 21 20 20 19 18 17 17 16 16 15 15 15 15
20 21 20 18 19 21 23 25 26 27 29 29 28 29 28 28 27 28 28 28 27 27 27 27 26 26 25 24 24 23 23 22 22 22 21 21 21 20 20 19 18 18 16 16 15 15 14 14 14
20 20 18 18 20 22 24 26 27 26 26 27 28 27 27 28 28 28 28 28 28 27 26 27 26 26 25 25 24 24 23 22 22 21 21 21 21 20 20 19 18 18 17 15 15 15 14 14 14
20 19 17 18 21 23 25 27 27 28 27 27 27 28 28 27 28 28 27 28 28 28 28 27 26 26 26 25 25 24 23 23 22 21 21 21 20 20 20 19 18 17 16 16 15 15 15 15 15
18 15 16 19 21 23 25 27 27 28 28 29 29 26 28 28 28 29 28 27 27 27 28 27 26 26 26 25 25 24 23 23 22 21 21 20 20 20 19 19 18 17 16 16 15 14 14 14 14
20 17 18 19 20 21 25 28 27 29 29 29 29 26 26 28 29 28 28 27 27 27 27 27 26 26 25 25 25 24 23 22 22 21 21 20 19 19 19 18 18 17 16 15 15 14 14 13 13
20 16 16 18 21 23 25 25 28 27 29 30 30 29 29 29 28 28 27 27 26 26 26 26 26 26 26 25 25 24 23 23 22 21 20 20 19 19 19 18 17 16 16 15 15 14 14 14 14
18 17 18 20 22 22 23 24 25 26 27 28 29 29 29 28 28 28 27 28 27 27 27 26 26 26 26 26 25 24 23 23 22 21 20 20 20 19 19 18 17 16 15 15 14 14 14 14 14
19 19 20 21 22 23 23 24 24 25 25 28 28 28 29 29 29 27 28 28 28 28 27 26 26 25 25 26 25 24 23 23 23 22 21 20 20 19 18 18 17 16 15 15 14 14 14 14 14
18 21 21 21 22 23 23 24 24 25 25 26 27 28 28 29 29 29 28 28 28 29 28 28 28 26 25 25 25 24 24 23 23 23 21 20 20 19 18 18 17 16 15 15 14 14 14 13 14
18 19 21 21 22 22 23 23 23 24 25 26 27 28 28 29 29 29 28 28 28 28 28 28 28 27 26 25 25 25 24 23 22 22 22 21 20 19 18 17 17 16 15 15 14 14 14 13 13
19 19 20 21 22 22 22 23 24 24 25 26 26 27 28 28 28 28 28 29 28 28 28 28 28 27 26 26 25 25 24 23 23 22 21 21 20 19 17 18 17 15 15 14 14 14 14 13 13
18 17 19 20 21 21 23 22 23 25 25 26 26 27 28 28 28 28 28 28 28 28 28 28 28 27 27 27 26 25 25 24 22 21 20 19 19 18 18 17 16 15 15 14 14 13 13 13 13
18 17 16 19 20 22 22 21 24 25 26 25 26 27 27 27 27 28 28 28 28 28 28 28 27 27 27 26 26 25 25 24 22 21 19 18 18 17 17 17 15 15 14 14 13 13 13 13 13
15 16 16 18 21 21 21 21 23 25 25 25 25 26 26 27 27 28 28 28 28 28 28 27 27 27 27 27 26 25 24 22 21 20 19 18 17 16 16 15 15 15 14 14 13 13 13 13 13
14 16 17 17 20 21 21 21 22 24 24 24 25 25 25 26 26 27 28 28 28 28 28 27 27 27 26 26 25 24 22 20 19 18 18 17 16 15 15 15 15 15 14 14 13 13 13 13 13
16 16 17 19 20 20 20 20 21 23 23 23 24 24 25 25 27 28 28 28 27 28 27 27 27 27 26 25 24 22 20 19 18 17 17 16 15 16 15 15 15 15 14 13 13 13 13 13 12
15 14 15 17 18 19 19 20 21 23 23 24 24 24 24 26 27 28 27 27 28 28 27 27 27 27 26 24 23 21 19 18 17 17 17 17 16 15 15 15 15 14 13 13 13 13 13 12 12
15 14 15 16 18 19 18 18 19 21 22 23 24 25 26 26 27 28 28 27 28 27 27 27 26 26 24 23 21 19 18 18 17 17 17 16 16 16 16 15 14 14 14 13 13 12 12 12 11
13 16 17 16 16 15 19 17 18 21 21 22 23 24 26 27 27 27 27 28 27 27 25 25 24 23 22 20 19 18 18 17 17 17 16 16 16 16 15 15 14 14 13 13 12 12 12 12 12
14 17 16 17 16 15 17 15 19 19 20 21 22 24 27 27 27 27 27 27 26 25 25 24 23 21 19 18 18 17 17 16 17 16 16 16 16 15 15 15 14 14 13 13 12 12 12 12 12
16 15 16 16 14 14 16 15 18 19 20 20 20 24 25 27 27 27 27 25 24 24 23 22 20 18 17 17 16 16 16 16 16 16 16 16 15 15 14 14 14 13 13 13 12 12 12 12 12
14 13 11 11 12 14 17 16 18 18 20 20 21 22 25 26 26 25 25 23 23 22 20 19 18 16 16 16 16 16 16 16 16 16 16 15 15 15 14 14 13 13 13 12 12 12 12 12 12
12 11 10 11 11 14 17 15 17 20 22 24 24 24 25 25 27 24 23 22 21 20 18 17 16 16 16 16 16 16 16 16 16 15 15 15 15 14 14 13 13 13 12 12 12 12 12 12 12
12 12 13 12 14 13 15 18 20 22 22 22 22 23 23 24 22 21 20 20 19 18 17 17 16 16 16 16 16 16 15 15 15 15 15 14 14 14 13 13 13 13 13 13 12 13 12 12 12
13 13 12 10 12 13 14 15 17 19 21 20 19 18 20 18 19 19 18 18 18 17 17 16 16 15 16 16 15 15 15 15 14 15 14 14 14 13 13 13 13 13 13 13 13 13 12 12 12
11 11 12 11 12 14 13 15 17 20 19 20 20 18 18 17 18 18 18 18 17 16 16 15 15 15 15 15 15 15 14 14 14 14 14 13 13 13 13 13 13 13 13 13 13 13 12 12 12
12 11 11 10 12 12 15 16 20 18 21 21 19 18 18 19 18 18 18 17 16 16 15 15 15 15 15 15 15 15 15 14 14 14 13 13 13 13 13 13 13 13 13 13 13 13 12 12 12

GFSSGP_850_temp_042.txt.gz
Temp
19 20 21 20 17 15 17 19 21 23 24 27 26 25 25 26 24 23 30 29 28 28 27 26 26 26 26 25 24 24 23 23 23 23 22 22 22 21 21 21 20 20 19 18 18 17 17 17 17
19 20 20 19 16 17 18 20 22 22 26 27 27 26 26 25 28 28 29 29 28 28 27 27 27 26 26 25 24 24 24 24 23 23 22 22 21 21 21 21 20 20 19 18 18 17 16 16 16
19 20 20 16 15 17 19 21 23 25 25 26 27 27 27 28 28 29 29 28 28 28 27 27 27 27 26 25 25 24 24 24 23 23 22 22 22 21 21 20 20 19 19 18 17 17 16 16 15
19 19 19 16 17 18 19 22 22 22 26 25 27 27 27 27 29 29 29 28 28 28 27 27 27 27 26 26 25 24 24 23 23 23 22 22 22 21 21 20 20 19 18 18 17 17 16 16 15
19 19 17 16 17 19 20 22 23 23 24 26 27 26 27 28 28 28 28 28 28 28 27 27 27 27 26 26 25 25 24 23 23 23 23 22 22 21 21 20 19 19 18 18 17 17 16 15 15
18 17 15 17 19 21 20 24 24 24 25 26 26 26 27 28 28 28 28 28 28 28 27 27 27 27 27 26 26 25 24 24 23 23 23 22 22 21 21 20 20 19 18 17 17 17 16 15 15
16 14 15 17 18 20 21 25 23 24 24 26 27 24 28 28 28 28 28 28 27 27 27 27 27 27 26 26 25 25 25 24 24 23 23 22 22 21 21 20 19 19 18 18 17 16 16 15 15
18 15 16 17 19 20 23 24 25 25 26 27 27 25 26 29 28 28 27 27 27 27 27 27 27 26 26 26 25 24 24 24 24 23 23 22 22 21 20 20 19 19 18 18 17 16 16 16 15
18 14 13 17 18 21 22 21 24 24 25 25 27 27 27 28 28 28 27 27 27 28 27 27 26 26 26 26 25 24 24 23 23 23 22 22 21 21 20 19 19 18 18 17 17 16 16 15 15
16 13 15 18 20 20 22 21 22 23 23 24 25 27 27 26 27 28 28 28 28 28 28 27 27 27 26 25 25 25 24 23 23 23 23 22 21 20 20 19 18 18 18 17 17 16 15 15 15
16 16 18 19 21 22 21 21 22 22 21 24 24 25 26 26 26 26 27 27 28 28 28 28 27 27 26 26 26 25 25 24 24 23 23 22 21 20 20 19 18 18 18 17 17 16 15 15 14
15 17 19 20 20 20 20 21 21 21 22 23 23 24 24 25 25 25 26 27 27 27 27 27 27 26 26 26 26 26 25 25 24 24 23 22 21 20 19 19 19 18 17 17 16 15 15 14 14
16 16 18 19 19 20 20 19 19 20 22 23 23 23 23 24 25 25 25 26 27 27 27 27 27 26 26 26 26 26 25 25 24 24 23 22 21 20 19 19 18 18 17 17 16 15 15 14 14
16 17 17 18 18 19 19 19 19 21 22 22 22 22 23 24 24 25 25 26 27 27 26 27 26 26 27 26 26 26 25 25 25 24 24 22 21 20 19 18 18 17 17 17 16 15 14 14 14
16 15 15 16 17 17 19 19 19 21 21 21 21 22 22 23 24 25 26 26 26 26 26 27 27 27 27 27 27 26 26 25 25 24 24 23 21 20 19 18 17 17 16 16 15 15 14 14 14
15 14 15 17 16 18 19 18 21 22 22 21 22 22 23 24 25 25 26 25 26 26 26 27 27 27 26 27 27 27 26 25 25 25 24 23 21 19 18 18 17 17 16 15 14 15 14 14 14
12 15 13 15 17 17 18 18 20 23 22 21 22 22 23 23 24 25 25 25 25 26 26 26 27 27 27 27 27 27 25 25 25 24 23 22 20 19 18 18 16 16 15 15 15 14 14 13 13
12 12 14 14 16 17 16 18 19 20 21 20 21 22 22 22 23 24 24 25 26 26 27 27 27 27 27 27 26 25 25 25 24 23 22 21 19 19 18 17 16 15 15 14 15 14 13 13 13
13 13 13 15 16 17 16 17 18 18 19 19 19 20 21 21 23 24 25 25 26 26 27 27 27 28 27 27 26 25 25 25 24 23 21 19 18 18 17 17 16 15 15 15 14 13 13 13 12
11 12 11 13 14 15 14 14 15 15 16 18 19 19 20 21 22 23 24 24 25 26 26 27 27 27 27 27 26 25 26 25 23 20 19 19 18 17 17 16 16 15 15 14 14 13 13 12 12
11 11 12 12 14 14 14 14 15 16 16 18 19 19 20 21 21 22 23 24 25 25 26 26 27 27 27 26 25 25 24 23 21 19 19 18 17 17 17 16 16 15 14 14 13 13 13 12 12
10 12 13 13 12 11 15 13 15 16 16 17 17 19 20 20 22 23 23 24 25 25 26 26 27 27 26 25 25 24 23 22 21 20 18 17 17 16 16 15 15 15 14 14 13 13 12 12 11
11 12 12 12 11 12 13 11 16 15 15 16 17 19 19 20 22 23 23 24 25 25 26 26 25 25 25 24 23 23 21 20 19 18 17 16 16 16 15 15 15 15 14 13 13 13 12 12 11
13 11 11 11 9 9 11 12 14 15 16 17 17 18 20 20 21 22 23 23 24 25 25 26 24 24 23 22 22 20 19 18 17 17 16 16 15 15 15 15 15 15 14 13 13 12 12 12 12
12 9 7 8 7 10 12 11 14 15 16 16 17 17 20 21 21 22 23 23 24 24 24 24 22 22 22 20 20 18 18 17 17 16 16 16 16 16 15 14 14 13 13 13 13 12 12 12 12
9 8 7 9 8 10 13 12 14 15 17 17 18 19 20 21 22 23 23 23 23 23 22 21 21 20 19 19 17 17 16 16 16 16 16 16 15 15 14 14 13 13 13 13 12 12 12 12 12
10 8 10 10 10 9 10 13 14 16 17 17 17 18 20 21 22 22 23 23 23 20 19 19 19 19 19 17 17 16 16 16 16 16 15 15 15 14 14 13 13 13 13 13 12 13 12 12 12
10 10 9 7 10 9 10 11 13 15 15 16 16 15 18 20 21 20 20 20 19 18 18 18 18 18 17 16 16 16 16 16 16 15 15 15 14 14 14 13 13 13 13 12 13 12 12 12 12
10 9 10 8 7 10 10 11 11 14 14 14 13 16 17 18 19 17 17 18 18 17 18 17 17 16 16 16 16 15 15 15 15 15 14 14 14 14 13 13 13 13 13 13 13 12 12 12 12
9 9 9 9 9 9 8 9 13 14 13 12 14 16 16 17 16 14 16 16 17 17 16 16 16 15 15 15 15 15 15 15 14 14 14 13 13 13 13 13 13 13 12 13 13 12 12 12 12

GFSSGP_850_temp_045.txt.gz
Temp
20 20 20 20 23 22 23 24 25 26 26 26 26 26 28 28 28 28 30 29 29 28 27 26 26 25 25 25 24 24 23 23 22 22 22 22 22 21 21 20 20 20 20 19 19 18 18 17 17
19 20 20 19 22 23 25 24 25 27 27 26 26 26 27 28 27 28 30 29 29 28 27 27 26 25 26 25 25 24 24 23 22 22 22 22 22 22 21 20 20 19 19 19 19 18 17 17 16
19 19 20 22 22 23 25 24 27 26 25 25 27 27 27 28 28 29 30 29 29 28 27 27 27 26 26 26 25 25 24 23 22 22 22 22 22 21 21 21 20 20 19 18 18 18 17 17 16
18 19 18 21 22 23 24 25 24 25 26 25 26 28 27 28 28 29 29 29 28 28 27 27 27 26 26 26 26 25 24 23 23 23 22 22 22 21 21 21 20 20 20 19 19 18 17 17 16
18 18 22 20 22 22 23 23 23 25 25 26 26 28 27 28 28 29 29 29 28 28 27 27 27 27 26 27 26 26 25 24 24 23 23 22 22 22 21 21 20 20 20 19 18 18 17 17 17
18 17 20 21 22 23 24 24 24 25 26 26 27 27 27 28 28 29 29 29 28 28 27 27 27 26 26 26 25 25 24 24 24 23 23 23 22 21 21 21 20 20 20 19 18 18 18 17 16
20 18 20 20 21 23 24 24 25 26 26 27 26 27 27 28 28 29 28 28 28 27 27 27 27 26 26 26 25 25 24 24 23 23 22 22 22 21 21 21 20 20 19 19 18 18 17 17 16
19 20 21 21 22 23 24 24 25 25 27 26 26 27 28 27 28 28 28 28 27 27 27 27 27 26 26 26 26 25 24 24 23 23 22 21 21 21 21 20 20 20 19 19 18 17 17 16 16
18 20 21 21 21 23 23 24 24 24 25 25 26 26 25 26 27 27 28 27 27 27 27 27 26 26 26 26 26 25 24 24 23 23 22 21 21 20 20 20 20 19 19 19 18 17 16 16 16
19 20 21 22 23 22 24 23 24 24 24 25 25 25 26 26 26 26 27 27 27 27 27 27 27 27 26 26 25 25 25 24 24 23 22 21 21 20 20 20 19 19 18 18 17 16 16 16 15
19 19 21 21 21 22 23 24 23 24 24 25 25 25 25 26 26 25 25 26 26 27 27 27 27 27 26 26 26 25 25 25 24 23 23 21 21 20 19 19 18 18 18 18 17 16 16 14 15
19 19 20 21 20 21 22 22 23 23 23 23 22 23 23 23 25 26 26 26 26 26 26 26 27 27 27 26 26 26 25 25 24 24 23 22 21 21 19 19 18 18 18 18 17 17 16 15 15
18 20 19 20 20 20 20 21 22 22 22 22 22 21 22 22 23 24 25 25 26 26 27 27 26 26 26 26 26 26 26 25 25 24 23 22 22 21 19 19 19 18 19 18 18 17 15 14 14
19 19 19 19 19 19 20 21 21 21 21 21 21 22 22 22 22 23 24 25 26 26 26 26 26 26 26 26 26 26 26 25 25 24 23 22 22 21 21 19 19 18 18 18 17 16 15 14 14
17 18 19 19 19 19 19 20 22 21 21 21 21 21 22 22 22 24 24 24 25 25 26 26 26 26 26 26 26 26 26 26 25 24 24 23 21 21 20 19 18 18 18 17 17 16 15 15 14
17 17 17 20 18 19 19 20 23 23 22 22 22 23 23 23 23 24 24 25 25 25 25 25 26 26 26 26 26 26 26 26 25 24 24 24 22 21 19 18 17 17 17 16 16 16 15 15 14
16 17 17 19 20 19 19 20 23 22 22 23 22 22 22 22 23 23 24 24 24 24 24 25 26 26 26 26 26 26 25 25 24 24 23 23 22 20 19 18 17 16 16 16 15 15 15 14 14
16 16 18 18 20 19 19 20 22 22 21 22 22 22 22 22 22 23 23 24 24 24 25 26 26 26 26 26 26 26 25 25 24 23 24 22 21 19 18 17 16 15 15 14 15 15 14 14 13
15 16 16 18 19 19 19 20 21 21 20 21 21 21 21 21 21 21 22 23 23 23 25 25 25 26 26 26 26 26 26 25 25 24 23 21 20 19 18 17 16 15 15 15 14 14 14 13 13
14 14 14 15 17 17 19 18 19 19 19 20 20 20 20 20 20 20 22 23 23 24 24 25 25 26 26 27 26 25 25 25 24 23 21 20 19 19 18 17 16 16 15 14 14 14 14 13 13
14 13 14 14 16 17 16 17 18 19 19 19 19 19 19 19 19 20 22 23 23 24 24 25 25 26 26 26 26 25 25 24 23 22 21 20 18 18 17 17 16 15 15 14 14 14 13 13 13
13 14 15 15 15 15 17 16 19 20 20 20 19 19 19 19 19 21 22 22 23 24 24 24 25 26 26 26 26 25 25 24 23 22 20 18 18 17 17 16 15 15 15 14 14 13 13 13 12
13 14 14 14 14 14 15 15 18 20 19 20 20 20 19 19 19 19 20 20 23 23 23 24 25 26 26 25 25 24 23 22 21 20 18 18 17 17 16 16 15 15 15 14 14 13 13 12 11
14 14 14 14 14 13 14 15 18 19 20 21 21 20 19 19 19 19 21 21 22 22 23 24 25 25 24 23 23 22 22 21 20 19 18 17 17 16 15 15 15 15 14 14 13 13 12 12 12
13 13 12 11 12 13 16 15 17 18 19 19 20 19 20 19 19 20 21 22 22 22 23 24 24 24 23 22 21 21 20 19 18 18 17 17 16 16 15 15 15 14 14 13 13 13 12 12 12
13 13 13 12 13 14 14 14 17 18 19 19 18 18 19 19 19 18 20 21 22 22 23 23 23 22 21 20 19 19 18 17 17 17 16 16 16 16 15 15 14 14 13 13 13 12 12 12 12
13 12 14 13 13 15 15 16 18 18 19 20 20 19 19 18 18 18 20 21 22 22 22 21 20 20 19 19 18 17 17 17 16 16 16 16 15 15 15 14 14 13 13 13 12 12 12 12 12
13 14 12 13 12 13 15 15 17 18 18 18 18 18 17 17 18 16 17 19 20 20 20 19 18 19 18 17 17 16 16 16 16 16 16 15 15 15 14 14 13 13 12 13 12 12 12 12 12
12 12 13 14 14 14 15 17 17 18 16 16 17 17 18 17 17 14 13 15 16 18 18 17 17 17 16 16 16 16 16 16 16 15 15 15 14 14 14 13 13 13 13 12 12 12 13 13 12
11 11 12 12 13 13 14 15 17 16 16 15 16 17 17 16 16 13 13 14 15 15 16 17 16 16 16 16 16 16 16 15 15 15 14 14 14 14 13 13 13 13 13 13 13 13 13 12 12

GFSSGP_850_temp_048.txt.gz
Temp
20 19 19 21 26 27 29 30 31 30 30 29 29 30 31 32 32 31 29 29 29 29 28 27 26 25 24 24 24 24 24 24 23 23 22 22 22 21 21 21 21 20 20 19 19 19 18 18 17
18 18 20 24 26 28 30 31 30 31 30 29 29 29 30 31 31 30 29 30 29 28 28 27 26 26 25 24 24 24 24 24 24 23 23 22 22 21 21 21 21 21 20 20 19 19 18 18 17
18 19 23 27 28 28 30 31 31 30 29 29 30 29 30 30 29 29 30 30 29 28 28 27 26 26 26 25 24 24 24 24 24 23 23 22 22 21 21 21 21 21 20 20 19 19 19 18 17
19 21 23 25 27 29 30 30 30 29 29 29 29 30 29 28 28 29 30 29 29 28 28 27 27 26 26 25 24 24 24 24 23 23 23 22 22 21 21 21 21 20 20 19 19 19 18 18 17
20 23 25 26 27 29 30 29 29 29 29 29 29 30 30 28 28 28 30 29 29 28 28 27 27 26 25 25 24 24 24 24 23 23 23 22 21 21 21 21 20 20 20 20 19 18 18 17 17
21 22 25 26 27 29 30 28 28 29 29 29 29 30 30 28 27 27 29 29 27 28 28 27 27 26 25 25 24 24 23 23 23 23 22 21 21 21 20 20 20 20 20 19 19 19 18 17 17
23 24 24 25 27 28 29 28 29 29 30 30 30 30 30 28 27 27 28 29 29 28 28 27 27 26 26 25 25 24 24 24 23 23 22 22 21 21 20 20 19 19 19 19 19 19 18 17 17
22 25 24 26 25 25 27 27 28 29 30 29 28 31 30 28 26 26 26 27 28 28 28 27 27 27 26 25 25 24 24 23 23 23 22 22 21 20 20 19 19 19 19 19 19 18 18 17 17
20 23 24 26 26 26 26 28 28 28 28 28 29 29 26 26 26 27 27 27 27 26 27 27 27 27 26 26 25 25 24 23 22 22 22 21 20 20 19 19 19 19 19 19 18 18 18 17 17
22 23 25 27 27 25 26 27 28 27 28 28 28 26 26 26 26 28 28 27 27 26 25 27 27 26 26 25 25 26 25 24 23 23 22 21 20 18 18 18 19 19 18 18 18 18 18 17 15
22 22 26 26 25 24 24 26 27 27 28 29 29 28 27 26 26 27 28 28 28 27 26 24 26 26 26 25 25 25 25 25 24 24 23 22 20 17 17 16 18 18 18 18 18 18 18 14 15
22 23 23 24 24 23 24 24 26 27 27 28 27 26 25 25 26 27 27 27 27 26 26 24 24 26 26 25 25 25 25 23 23 22 23 21 20 18 17 16 16 17 16 18 16 15 14 15 15
22 23 23 23 23 23 22 23 25 26 26 26 26 25 25 25 25 25 25 25 26 26 26 25 25 26 26 26 25 26 26 25 23 20 19 19 17 17 16 16 16 16 16 16 16 15 15 15 14
22 22 23 23 23 22 23 23 23 24 25 25 25 24 25 25 25 25 24 24 25 25 26 25 26 26 26 26 26 26 25 25 23 19 18 19 17 17 16 15 15 16 16 17 15 16 15 15 15
20 21 22 23 23 23 22 23 24 24 25 25 25 24 25 25 25 25 25 24 24 25 25 26 26 25 25 26 26 26 26 26 24 21 19 17 17 16 16 15 15 16 16 15 15 15 14 15 14
19 20 20 23 23 23 22 21 25 25 25 25 24 25 25 25 25 25 25 24 23 23 24 25 25 25 25 26 25 25 25 25 24 21 18 19 17 16 15 15 15 15 15 15 15 14 14 15 14
19 19 21 22 24 23 21 21 24 24 25 26 25 25 25 26 26 25 23 23 23 23 24 24 25 25 26 25 26 26 25 25 23 22 18 18 17 14 15 15 15 15 14 15 14 14 14 15 14
19 20 21 21 24 24 22 22 24 25 24 25 25 25 25 25 25 24 23 23 22 22 24 24 25 25 26 25 26 26 25 24 22 19 18 18 17 15 16 15 15 16 14 14 14 14 15 14 13
19 19 21 22 23 23 23 23 23 24 24 25 25 25 25 24 24 24 23 22 21 21 24 24 24 25 24 25 26 26 23 20 18 17 18 18 17 16 18 15 16 17 15 16 14 14 14 14 13
17 17 18 19 20 21 22 22 23 24 24 24 24 24 24 24 24 23 23 22 21 21 23 23 23 23 24 25 25 22 20 19 18 17 18 18 16 17 18 15 16 17 15 16 15 14 14 14 13
15 16 17 18 19 20 20 20 22 24 24 23 22 22 22 22 22 22 22 22 22 21 21 23 23 23 24 24 24 24 20 21 21 18 16 16 17 18 17 15 15 16 15 15 15 14 13 13 13
14 16 17 17 18 17 20 19 22 23 23 23 23 23 23 22 22 22 22 22 22 22 22 21 23 23 24 24 23 23 20 20 18 18 16 19 18 18 16 16 16 16 15 14 14 13 14 13 12
15 16 17 17 17 17 18 19 21 22 22 23 24 23 23 23 23 23 23 22 22 22 22 21 23 23 24 24 22 22 20 19 18 17 18 16 17 17 16 16 16 14 14 14 14 14 14 13 13
16 15 16 16 17 16 18 19 20 21 23 24 24 24 23 23 22 22 22 21 21 22 21 20 22 24 24 24 23 22 19 18 18 17 16 15 16 16 16 14 14 14 14 14 14 14 14 13 12
15 14 13 14 15 15 19 18 19 22 22 24 23 23 22 22 22 22 22 22 22 21 21 20 22 24 24 23 22 21 20 19 19 17 17 16 16 15 15 14 15 14 13 14 14 13 12 13 12
14 14 13 13 15 16 18 17 20 22 23 22 22 22 22 22 21 22 22 22 21 21 21 20 19 19 20 19 19 18 19 17 17 17 17 17 16 16 15 15 14 13 13 13 13 12 12 12 12
12 13 15 15 15 18 19 19 20 22 21 22 23 22 21 21 21 21 20 21 20 21 20 19 19 18 17 17 17 18 17 17 17 16 16 16 16 15 14 14 13 13 13 12 12 13 12 11 11
13 14 13 14 12 15 19 19 19 21 21 22 21 21 20 20 20 20 19 18 18 18 17 18 18 17 17 16 16 16 16 16 16 16 15 15 14 14 14 13 13 13 12 12 12 12 12 11 12
14 14 12 13 15 16 18 20 22 21 21 20 20 20 20 20 20 19 17 14 16 18 18 17 17 17 16 16 16 16 15 15 15 15 14 15 15 14 13 13 13 13 12 12 12 12 12 12 12
12 10 13 12 13 14 17 18 20 20 20 20 20 19 19 19 20 19 14 13 17 18 18 17 17 17 16 16 16 15 15 15 14 14 14 14 13 13 13 13 13 13 13 12 12 12 12 12 12